Regional Weather Roundup
Issued by NWS Little Rock, AR

Current Version | Previous Version | Text Only | Print | Product List | Glossary On
Versions: 1 2 3 4 5 6 7 8 9 10 11 12 13 14 15 16 17 18 19 20 21 22 23 24 25 26 27 28 29 30 31 32 33 34 35 36 37 38 39 40 41 42 43 44 45 46 47 48 49 50
000
ASUS44 KLZK 011205
RWRLZK

WEATHER ROUNDUP FOR ARKANSAS
NATIONAL WEATHER SERVICE LITTLE ROCK AR
600 AM CST SUN FEB 01 2015

NOTE: "FAIR" INDICATES FEW OR NO CLOUDS BELOW 12,000 FEET WITH NO
SIGNIFICANT WEATHER AND/OR OBSTRUCTIONS TO VISIBILITY.

ARZ001-003-010-029-011300-
NORTHWEST ARKANSAS

CITY           SKY/WX    TMP DP  RH WIND       PRES   REMARKS
FAYETTEVILLE   CLOUDY    44  44 100 S7        29.76F
6HR MIN TEMP:  40; 6HR MAX TEMP:  44; 6HR PCP:  0.33;

FORT SMITH     RAIN      41  39  93 NE5       29.81S FOG
6HR MIN TEMP:  40; 6HR MAX TEMP:  41; 6HR PCP:  0.62;

HARRISON       CLOUDY    43  43 100 SE8       29.75F FOG
6HR MIN TEMP:  41; 6HR MAX TEMP:  45; 6HR PCP:  0.18;

BENTONVILLE    CLOUDY    43  39  87 SW8       29.76S
6HR MIN TEMP:  39; 6HR MAX TEMP:  43; 6HR PCP:  0.49;

ROGERS         LGT RAIN  43  42  97 SW12      29.75F FOG
6HR MIN TEMP:  39; 6HR MAX TEMP:  43; 6HR PCP:  0.56;

SILOAM SPGS    CLOUDY    41  36  81 SW8       29.77F
6HR MIN TEMP:  39; 6HR MAX TEMP:  43; 6HR PCP:  0.46;

HIGHFILL       CLOUDY    42  41  96 SW9       29.75F FOG
6HR MIN TEMP:  40; 6HR MAX TEMP:  42; 6HR PCP:  0.45;

SPRINGDALE     LGT RAIN  43  43 100 SW12G23   29.77  FOG
$$

ARZ004-005-016-011300-
NORTH CENTRAL ARKANSAS

CITY           SKY/WX    TMP DP  RH WIND       PRES   REMARKS
BATESVILLE     CLOUDY    45  41  87 S3        29.81S
6HR MIN TEMP:  39; 6HR MAX TEMP:  45; 6HR PCP:  0.16;

FLIPPIN        CLOUDY    45  37  76 CALM      29.77S
6HR MIN TEMP:  41; 6HR MAX TEMP:  45; 6HR PCP:  0.28;

MTN HOME       CLOUDY    42  41  96 S6        29.77S
6HR MIN TEMP:  37; 6HR MAX TEMP:  42;

$$

ARZ040-041-011300-
WEST CENTRAL ARKANSAS

CITY           SKY/WX    TMP DP  RH WIND       PRES   REMARKS
MENA           CLOUDY    52  50  93 SW5       29.81F
MOUNT IDA      LGT RAIN  51  49  92 VRB5      29.79S
6HR MIN TEMP:  48; 6HR MAX TEMP:  51; 6HR PCP:  0.22;

$$

ARZ009-017-025-026-028-011300-
NORTHEAST ARKANSAS

CITY           SKY/WX    TMP DP  RH WIND       PRES   REMARKS
CORNING        LGT RAIN  43  41  93 S12       29.82F
JONESBORO      LGT RAIN  44  42  93 S16       29.82F
6HR MIN TEMP:  38; 6HR MAX TEMP:  44; 6HR PCP:  0.13;

NEWPORT        LGT RAIN  45  43  93 S16       29.82F
6HR MIN TEMP:  38; 6HR MAX TEMP:  45; 6HR PCP:  0.10;

WALNUT RIDGE   CLOUDY    43  37  81 S15       29.80F
6HR MIN TEMP:  37; 6HR MAX TEMP:  43; 6HR PCP:  0.15;

BLYTHEVILLE    LGT RAIN  46  39  76 S16G25    29.87F
6HR MIN TEMP:  45; 6HR MAX TEMP:  50; 6HR PCP:  0.02;

$$

ARZ022-023-033-042-044-011300-
CENTRAL ARKANSAS

CITY           SKY/WX    TMP DP  RH WIND       PRES   REMARKS
LITTLE ROCK    LGT RAIN  53  49  86 S13G21    29.83F FOG
6HR MIN TEMP:  45; 6HR MAX TEMP:  53; 6HR PCP:  0.09;

N LITTLE ROCK    N/A     51  51 100 S12G21    29.83F
6HR MIN TEMP:  43; 6HR MAX TEMP:  51;

JACKSONVILLE   LGT RAIN  52  50  94 S14G24    29.82S
6HR MIN TEMP:  42; 6HR MAX TEMP:  52; 6HR PCP:  0.07;

SEARCY         LGT RAIN  49  47  93 S9        29.83F
6HR MIN TEMP:  40; 6HR MAX TEMP:  49; 6HR PCP:  0.14;

HOT SPRINGS    LGT RAIN  50  48  93 CALM      29.83F
6HR MIN TEMP:  46; 6HR MAX TEMP:  50; 6HR PCP:  0.21;

RUSSELLVILLE   CLOUDY    44  42  93 SE3       29.80F FOG
6HR MIN TEMP:  41; 6HR MAX TEMP:  44; 6HR PCP:  0.30;

CLINTON        LGT RAIN  39  39 100 CALM      29.84F
$$

ARZ036-011300-
EAST ARKANSAS

CITY           SKY/WX    TMP DP  RH WIND       PRES   REMARKS
WEST MEMPHIS   LGT RAIN  47  44  90 S13       29.88F
6HR MIN TEMP:  46; 6HR MAX TEMP:  51; 6HR PCP:  0.04;

$$

ARZ050-053-066-070-073-011300-
SOUTHWEST ARKANSAS

CITY           SKY/WX    TMP DP  RH WIND       PRES   REMARKS
ARKADELPHIA    LGT RAIN  51  51 100 S6        29.84F FOG
6HR MIN TEMP:  45; 6HR MAX TEMP:  50; 6HR PCP:  0.06;

CAMDEN         CLOUDY    55  50  82 MISG      29.87F
TEXARKANA      LGT RAIN  56  54  93 S12G24    29.84F
6HR MIN TEMP:  50; 6HR MAX TEMP:  56; 6HR PCP:  0.04;

EL DORADO      RAIN      55  52  89 S12       29.89F
6HR MIN TEMP:  52; 6HR MAX TEMP:  55; 6HR PCP: TRACE;

DE QUEEN       LGT RAIN  49  48  97 CALM      29.81F FOG
6HR MIN TEMP:  47; 6HR MAX TEMP:  50; 6HR PCP:  0.31;

$$

ARZ056-057-069-011300-
SOUTHEAST ARKANSAS

CITY           SKY/WX    TMP DP  RH WIND       PRES   REMARKS
PINE BLUFF     CLOUDY    52  49  89 S20       29.87F
6HR MIN TEMP:  46; 6HR MAX TEMP:  53; 6HR PCP:  0.04;

STUTTGART      CLOUDY    48  45  87 S21       29.86F
6HR MIN TEMP:  45; 6HR MAX TEMP:  52; 6HR PCP:  0.06;

MONTICELLO     CLOUDY    52  49  89 S16G22    29.90S
6HR MIN TEMP:  50; 6HR MAX TEMP:  53; 6HR PCP:  0.09;


$$




USA.gov is the U.S. government's official web portal to all federal, state and local government web resources and services.